This demonstration page uses our WeatherBlox Daily Observations layout. Learn more.

Left ArrowRight Arrow

40.92945, -100.16068

Hourly Observations for June 27, 2020

Temp ( °F °C ) Dew Point ( °F °C ) Humidity (%) Winds ( mph kmh ) Pressure ( in mb ) Visibility ( mi km ) Precip ( " mm )
12:15 am 00:15 Clear 71 21.7 66 18.9 84 84 Calm 29.82 1010 10 16.0934 0 0
12:35 am 00:35 Clear 71 21.6 65 18.6 83 83 Calm 29.81 1009 10 16.0934 0 0
12:55 am 00:55 Clear 71 21.5 66 18.7 84 84 Calm 29.81 1009 10 16.0934 0 0
1:15 am 01:15 Clear 70 21.3 67 19.3 88 88 W 6 9 29.81 1010 10 16.0934 0 0
1:35 am 01:35 Clear with Light Rain 71 21.9 67 19.2 85 85 WNW 6 9 29.77 1008 10 16.0934 0 0
1:55 am 01:55 Clear 72 22.2 66 19 82 82 Calm 29.74 1007 10 16.0934 0 0
2:15 am 02:15 Partly Cloudy 70 21.2 66 19.1 88 88 W 5 7 29.79 1009 10 16.0934 0 0
2:35 am 02:35 Partly Cloudy 70 21 66 18.8 87 87 Calm 29.78 1009 10 16.0934 0 0
2:55 am 02:55 Clear 69 20.6 66 18.9 90 90 N 3 6 29.81 1009 10 16.0934 0 0
3:15 am 03:15 Partly Cloudy 69 20.6 66 19 91 91 NNW 6 9 29.82 1010 10 16.0934 0 0
3:35 am 03:35 Partly Cloudy 69 20.7 66 19 90 90 Calm 29.82 1010 10 16.0934 0 0
3:55 am 03:55 Clear 69 20.6 66 18.8 89 89 Calm 29.82 1010 10 16.0934 0 0
4:15 am 04:15 Clear 68 19.9 65 18.5 92 92 Calm 29.82 1010 10 16.0934 0 0
4:35 am 04:35 Clear 68 20.1 65 18.6 91 91 Calm 29.82 1010 10 16.0934 0 0
4:55 am 04:55 Partly Cloudy 67 19.4 64 17.9 91 91 Calm 29.82 1010 10 16.0934 0 0
5:15 am 05:15 Partly Cloudy 68 19.8 65 18.4 92 92 Calm 29.81 1010 10 16.0934 0 0
5:35 am 05:35 Mostly Cloudy 68 20.2 65 18.6 91 91 E 3 6 29.8 1009 10 16.0934 0 0
5:55 am 05:55 Partly Cloudy 70 21.1 67 19.3 90 90 ESE 5 7 29.79 1009 7 11.26538 0 0
6:15 am 06:15 Mostly Cloudy 70 21 67 19.4 91 91 Calm 29.79 1009 7 11.26538 0 0
6:35 am 06:35 Partly Cloudy with Mist and Fog 68 20.1 66 19 93 93 ENE 3 6 29.8 1009 4 6.43736 0 0
6:55 am 06:55 Sunny with Mist and Fog 68 19.8 66 19 95 95 ENE 3 6 29.8 1009 4 6.43736 0 0
7:15 am 07:15 Sunny with Mist and Fog 68 20.1 66 19 93 93 Calm 29.8 1009 5 8.0467 0 0
7:35 am 07:35 Sunny with Mist and Fog 69 20.3 67 19.2 93 93 Calm 29.79 1009 5 8.0467 0 0
7:55 am 07:55 Sunny 70 21 67 19.5 91 91 Calm 29.77 1008 7 11.26538 0 0
8:15 am 08:15 Sunny 72 22 68 19.8 87 87 Calm 29.76 1008 7 11.26538 0 0
8:35 am 08:35 Sunny 73 22.8 68 20 84 84 Calm 29.75 1007 7 11.26538 0 0
8:55 am 08:55 Sunny 75 23.7 69 20.3 81 81 Calm 29.74 1007 7 11.26538 0 0
9:15 am 09:15 Sunny 75 24.1 69 20.4 80 80 NW 3 6 29.74 1007 7 11.26538 0 0
9:35 am 09:35 Sunny 76 24.2 69 20.5 80 80 Calm 29.74 1007 7 11.26538 0 0
9:55 am 09:55 Sunny 78 25.5 69 20.8 75 75 Calm 29.73 1007 7 11.26538 0 0
10:15 am 10:15 Sunny 80 26.6 69 20.8 71 71 Calm 29.72 1006 10 16.0934 0 0
10:35 am 10:35 Sunny 83 28.3 68 19.9 60 60 SE 3 6 29.7 1006 10 16.0934 0 0
10:55 am 10:55 Sunny 84 28.8 67 19.6 58 58 ESE 5 7 29.69 1005 10 16.0934 0 0
11:15 am 11:15 Sunny 86 29.8 66 19.1 53 53 SSE 6 9 29.68 1005 10 16.0934 0 0
11:35 am 11:35 Sunny 87 30.4 66 18.9 50 50 SSE 8 13 29.68 1005 10 16.0934 0 0
11:55 am 11:55 Partly Cloudy 87 30.6 66 18.8 49 49 SSE 12 19 29.68 1005 10 16.0934 0 0
12:15 pm 12:15 Partly Cloudy 88 31.3 65 18.2 46 46 SSE 12 19 29.67 1005 10 16.0934 0 0
12:35 pm 12:35 Partly Cloudy 88 31.3 68 20.1 51 51 SSE 20 31 29.67 1005 10 16.0934 0 0
12:55 pm 12:55 Partly Cloudy 88 31.1 68 20 52 52 S 17 28 29.67 1005 10 16.0934 0 0
1:15 pm 13:15 Partly Cloudy 86 29.9 67 19.6 54 54 S 13 20 29.67 1005 10 16.0934 0 0
1:35 pm 13:35 Partly Cloudy 88 31.3 67 19.2 49 49 S 17 28 29.66 1004 10 16.0934 0 0
1:55 pm 13:55 Sunny 89 31.6 65 18.6 46 46 S 17 28 29.65 1004 10 16.0934 0 0
2:15 pm 14:15 Sunny 89 31.7 64 18 44 44 S 15 24 29.64 1004 10 16.0934 0 0
2:35 pm 14:35 Sunny 91 32.7 64 17.7 41 41 S 12 19 29.62 1003 10 16.0934 0 0
2:55 pm 14:55 Sunny 91 32.8 62 16.5 38 38 SSW 17 28 29.61 1003 10 16.0934 0 0
3:15 pm 15:15 Sunny 91 32.9 62 16.5 37 37 SSW 17 28 29.6 1002 10 16.0934 0 0
3:35 pm 15:35 Sunny 92 33.2 61 16.2 36 36 SSW 17 28 29.6 1002 10 16.0934 0 0
3:55 pm 15:55 Sunny 92 33.6 59 15.2 33 33 SSW 15 24 29.58 1002 10 16.0934 0 0
4:15 pm 16:15 Sunny 92 33.6 59 15.1 33 33 SSW 14 22 29.57 1001 10 16.0934 0 0
4:35 pm 16:35 Sunny 92 33.5 59 15.1 33 33 S 14 22 29.56 1001 10 16.0934 0 0
4:55 pm 16:55 Sunny 93 33.8 58 14.2 31 31 S 15 24 29.56 1001 10 16.0934 0 0
5:15 pm 17:15 Sunny 93 33.9 58 14.3 31 31 S 12 19 29.55 1001 10 16.0934 0 0
5:35 pm 17:35 Sunny 94 34.2 57 13.9 29 29 S 14 22 29.55 1001 10 16.0934 0 0
5:55 pm 17:55 Sunny 93 33.9 56 13.6 29 29 S 13 20 29.54 1000 10 16.0934 0 0
6:15 pm 18:15 Sunny 93 33.8 58 14.6 31 31 S 13 20 29.53 1000 10 16.0934 0 0
6:35 pm 18:35 Sunny 92 33.2 58 14.4 32 32 S 14 22 29.54 1000 10 16.0934 0 0
6:55 pm 18:55 Sunny 91 32.8 58 14.7 33 33 S 12 19 29.52 1000 10 16.0934 0 0
7:15 pm 19:15 Sunny 90 32.3 58 14.5 34 34 S 12 19 29.52 1000 10 16.0934 0 0
7:35 pm 19:35 Sunny 88 31.3 58 14.5 36 36 S 10 17 29.53 1000 10 16.0934 0 0
7:55 pm 19:55 Sunny 85 29.2 60 15.4 43 43 SSE 10 17 29.55 1001 10 16.0934 0 0
8:15 pm 20:15 Sunny 83 28.3 60 15.8 47 47 SSE 9 15 29.56 1001 10 16.0934 0 0
8:35 pm 20:35 Sunny 82 28 61 16.2 49 49 SE 9 15 29.57 1001 10 16.0934 0 0
8:55 pm 20:55 Sunny 82 27.6 63 17.1 53 53 SE 8 13 29.57 1001 10 16.0934 0 0
9:15 pm 21:15 Clear 81 27.1 64 18 58 58 SE 10 17 29.56 1001 10 16.0934 0 0
9:35 pm 21:35 Clear 80 26.6 65 18.5 61 61 SE 9 15 29.57 1001 10 16.0934 0 0
9:55 pm 21:55 Clear 79 26.1 66 18.8 64 64 ESE 9 15 29.57 1001 10 16.0934 0 0
10:15 pm 22:15 Clear 78 25.6 66 18.8 66 66 SE 12 19 29.59 1002 10 16.0934 0 0
10:35 pm 22:35 Clear 78 25.3 66 19 68 68 SE 10 17 29.6 1002 10 16.0934 0 0
10:55 pm 22:55 Clear 77 25.1 66 19.1 69 69 SE 12 19 29.59 1002 10 16.0934 0 0
11:15 pm 23:15 Clear 76 24.7 67 19.2 72 72 ESE 13 20 29.58 1002 10 16.0934 0 0
11:35 pm 23:35 Clear 76 24.3 67 19.2 73 73 ESE 14 22 29.58 1002 10 16.0934 0 0
11:55 pm 23:55 Clear with Nearby Thunderstorms 75 24.1 67 19.3 75 75 ESE 13 20 29.55 1001 10 16.0934 0 0

Powered by AerisWeather